Regional Weather Roundup
Issued by NWS Little Rock, AR

Home | Current Version | Previous Version | Text Only | Print | Product List | Glossary Off
Versions: 1 2 3 4 5 6 7 8 9 10 11 12 13 14 15 16 17 18 19 20 21 22 23 24 25 26 27 28 29 30 31 32 33 34 35 36 37 38 39 40 41 42 43 44 45 46 47 48 49 50

000
ASUS44 KLZK 012205
RWRLZK

WEATHER ROUNDUP FOR ARKANSAS
NATIONAL WEATHER SERVICE LITTLE ROCK AR
500 PM CDT WED OCT 01 2014

NOTE: "FAIR" INDICATES FEW OR NO CLOUDS BELOW 12,000 FEET WITH NO
SIGNIFICANT WEATHER AND/OR OBSTRUCTIONS TO VISIBILITY.

ARZ001-003-010-029-012300-
NORTHWEST ARKANSAS

CITY           SKY/WX    TMP DP  RH WIND       PRES   REMARKS
FAYETTEVILLE   MOSUNNY   83  67  58 S17       29.79F HX  85
FORT SMITH     SUNNY     87  68  52 S8        29.77S HX  90
HARRISON       SUNNY     82  68  62 S13       29.82S HX  85
BENTONVILLE    MOSUNNY   84  66  54 S14G20    29.80R HX  86
ROGERS         MOSUNNY   83  66  56 SE12G23   29.80F HX  85
SILOAM SPGS    SUNNY     84  64  51 S16G23    29.79S HX  86
HIGHFILL       MOSUNNY   83  66  56 S21G28    29.78F HX  85
SPRINGDALE     PTSUNNY   82  68  61 S15G26    29.81F HX  85
$$

ARZ004-005-016-012300-
NORTH CENTRAL ARKANSAS

CITY           SKY/WX    TMP DP  RH WIND       PRES   REMARKS
BATESVILLE     MOSUNNY   88  64  45 S13G20    29.82R HX  89
FLIPPIN        MOSUNNY   86  64  48 S5        29.81R HX  87
MTN HOME       MOSUNNY   86  66  51 S8        29.80S HX  88
$$

ARZ040-041-012300-
WEST CENTRAL ARKANSAS

CITY           SKY/WX    TMP DP  RH WIND       PRES   REMARKS
MENA           MOSUNNY   86  70  58 CALM      29.82F HX  90
MOUNT IDA      SUNNY     85  69  58 VRB6      29.80F HX  89
$$

ARZ009-017-025-026-028-012300-
NORTHEAST ARKANSAS

CITY           SKY/WX    TMP DP  RH WIND       PRES   REMARKS
CORNING          N/A     82  68  61 SE12G18   29.83R HX  85
JONESBORO      MOSUNNY   82  68  62 S20G31    29.85R HX  85
NEWPORT        PTSUNNY   78  68  71 SE16      29.86R
WALNUT RIDGE   SUNNY     82  66  57 S22G28    29.82R HX  85
BLYTHEVILLE    PTSUNNY   85  64  49 S9        29.87R HX  86
$$

ARZ022-023-033-042-044-012300-
CENTRAL ARKANSAS

CITY           SKY/WX    TMP DP  RH WIND       PRES   REMARKS
LITTLE ROCK    MOSUNNY   87  69  54 S10       29.82S HX  91
N LITTLE ROCK  MOSUNNY   85  72  64 S9G17     29.82S HX  90
JACKSONVILLE   MOSUNNY   89  71  55 S10G18    29.82S HX  94
SEARCY         SUNNY     81  73  76 S12       29.84  HX  86
HOT SPRINGS    MOSUNNY   88  68  51 S8        29.81F HX  91
RUSSELLVILLE   MOSUNNY   88  69  53 VRB6      29.79F HX  92
CLINTON        FAIR      88  70  55 S6        29.81R HAZE    HX  92
$$

ARZ036-012300-
EAST ARKANSAS

CITY           SKY/WX    TMP DP  RH WIND       PRES   REMARKS
WEST MEMPHIS   CLOUDY    75  72  90 CALM      29.86F
$$

ARZ050-053-066-070-073-012300-
SOUTHWEST ARKANSAS

CITY           SKY/WX    TMP DP  RH WIND       PRES   REMARKS
ARKADELPHIA    FAIR      89  72  57 S9        29.80F HX  96
CAMDEN         MOSUNNY   90  66  45 S8        29.80F HX  92
TEXARKANA      MOSUNNY   87  69  54 S10       29.79S HX  91
EL DORADO      MOSUNNY   88  70  55 SE9       29.82F HX  93
DE QUEEN       SUNNY     87  71  58 VRB6      29.77F HX  93
$$

ARZ056-057-069-012300-
SOUTHEAST ARKANSAS

CITY           SKY/WX    TMP DP  RH WIND       PRES   REMARKS
PINE BLUFF     CLOUDY    78  71  79 E7        29.82F
STUTTGART      MOSUNNY  N/A N/A N/A E7        29.84F
MONTICELLO     MOSUNNY   89  65  44 S13       29.82F HX  91

$$





USA.gov is the U.S. government's official web portal to all federal, state and local government web resources and services.